Location: Jetmore Oil Field
(38.1181°N, 99.9337°W)
Time: 04:55:50
(UTC+00:00)

Sich 1 - Pass Details

Date: 17 February 2020
Orbit: 595 x 624 km, 82.5° (Epoch: 31 March)

Event Time Altitude Azimuth Distance (km) Brightness Sun altitude
Rises 01:15:49 0° 177° (S) 2,851 6.5 -11.8°
Reaches altitude 10° 01:18:03 10° 174° (S) 1,947 5.6 -12.2°
Maximum altitude 01:22:18 61° 94° (E) 685 3.0 -13.1°
Drops below altitude 10° 01:26:32 10° 15° (NNE) 1,946 5.4 -13.9°
Sets 01:28:46 0° 12° (NNE) 2,850 6.3 -14.3°
